Terminal Aerodrome Forecast
Issued by NWS

Home | Current Version | Previous Version | Text Only | Print | Product List | Glossary On
Versions: 1 2 3 4 5 6 7 8 9 10 11 12 13
000
FTUS46 KSTO 221100
TAFRBL
TAF
KRBL 221120Z 2212/2312 01003KT P6SM SKC
     FM222000 16012G20KT P6SM SCT150
     FM230400 16008KT P6SM SKC=

USA.gov is the U.S. government's official web portal to all federal, state and local government web resources and services.